TimeCST,TemperatureF,Dew PointF,Humidity,Sea Level PressureIn,VisibilityMPH,Wind Direction,Wind SpeedMPH,Gust SpeedMPH,PrecipitationIn,Events,Conditions,WindDirDegrees,DateUTC
12:53 AM,19.9,16.0,85,29.98,7.0,ESE,3.5,-,N/A,,Clear,110,2013-02-24 06:53:00
1:53 AM,19.9,16.0,85,29.99,6.0,Calm,Calm,-,N/A,,Clear,0,2013-02-24 07:53:00
2:53 AM,19.9,16.0,85,29.98,7.0,SE,3.5,-,N/A,,Clear,140,2013-02-24 08:53:00
3:53 AM,19.0,15.1,85,29.98,6.0,ESE,3.5,-,N/A,,Clear,110,2013-02-24 09:53:00
4:53 AM,18.0,15.1,88,29.98,6.0,SE,5.8,-,N/A,,Clear,130,2013-02-24 10:53:00
5:53 AM,17.6,15.8,93,29.96,6.0,SE,4.6,-,N/A,,Clear,130,2013-02-24 11:53:00
6:53 AM,17.1,14.0,88,30.00,4.0,ESE,3.5,-,N/A,,Clear,120,2013-02-24 12:53:00
7:09 AM,15.8,14.0,93,29.96,2.0,ESE,3.5,-,N/A,,Clear,120,2013-02-24 13:09:00
7:32 AM,15.8,14.0,93,29.97,3.0,ESE,3.5,-,N/A,,Clear,120,2013-02-24 13:32:00
7:53 AM,18.0,16.0,92,30.01,4.0,Calm,Calm,-,N/A,,Clear,0,2013-02-24 13:53:00
8:53 AM,21.0,17.1,85,30.03,5.0,ESE,4.6,-,N/A,,Clear,110,2013-02-24 14:53:00
9:53 AM,25.0,19.9,81,30.05,7.0,ESE,5.8,-,N/A,,Clear,120,2013-02-24 15:53:00
10:53 AM,28.9,21.9,75,30.05,8.0,ENE,3.5,-,N/A,,Clear,70,2013-02-24 16:53:00
11:53 AM,33.1,24.1,70,30.06,9.0,Calm,Calm,-,N/A,,Partly Cloudy,0,2013-02-24 17:53:00
12:53 PM,36.0,26.1,67,30.03,10.0,East,4.6,-,N/A,,Scattered Clouds,100,2013-02-24 18:53:00
1:53 PM,37.9,25.0,60,29.98,10.0,ESE,9.2,-,N/A,,Clear,120,2013-02-24 19:53:00
2:53 PM,41.0,26.1,55,29.96,10.0,ESE,9.2,-,N/A,,Clear,120,2013-02-24 20:53:00
3:53 PM,41.0,27.0,57,29.96,10.0,East,6.9,-,N/A,,Clear,90,2013-02-24 21:53:00
4:53 PM,39.0,28.0,65,29.96,10.0,ENE,6.9,-,N/A,,Mostly Cloudy,70,2013-02-24 22:53:00
5:53 PM,37.9,27.0,65,29.98,10.0,ENE,6.9,-,N/A,,Overcast,60,2013-02-24 23:53:00
6:53 PM,37.0,26.1,65,30.01,10.0,ENE,9.2,-,N/A,,Overcast,70,2013-02-25 00:53:00
7:53 PM,36.0,26.1,67,30.02,10.0,NE,5.8,-,N/A,,Overcast,50,2013-02-25 01:53:00
8:53 PM,35.1,26.1,70,30.04,10.0,NE,5.8,-,N/A,,Overcast,50,2013-02-25 02:53:00
9:53 PM,35.1,26.1,70,30.05,10.0,ENE,4.6,-,N/A,,Overcast,60,2013-02-25 03:53:00
10:53 PM,35.1,26.1,70,30.05,10.0,NNE,5.8,-,N/A,,Overcast,20,2013-02-25 04:53:00
11:53 PM,35.1,25.0,67,30.03,10.0,NNE,5.8,-,N/A,,Overcast,30,2013-02-25 05:53:00